Change the Weather History Date:

Monday, February 13, 2012

  Actual Average Record
Temperature  
Mean Temperature 51 °F 63 °F  
Max Temperature 64 °F 72 °F 85 °F (1959)
Min Temperature 37 °F 54 °F 26 °F (1899)
Degree Days  
Heating Degree Days 14 4  
Month to date heating degree days 42 59  
Since 1 July heating degree days 200 424  
Cooling Degree Days 0 2  
Month to date cooling degree days 54 26  
Year to date cooling degree days 107 76  
Moisture  
Dew Point 31 °F    
Average Humidity 49    
Maximum Humidity 70    
Minimum Humidity 27    
Precipitation  
Precipitation 0.00 in 0.11 in 1.44 in (1947)
Month to date precipitation 0.61 1.33  
Year to date precipitation 1.69 3.56  
Sea Level Pressure  
Sea Level Pressure 30.23 in    
Wind  
Wind Speed 5 mph (NNE)    
Max Wind Speed 12 mph    
Max Gust Speed 20 mph    
Visibility 10 miles    
Events      
T = Trace of Precipitation, MM = Missing Value Source: NWS Daily Summary

Daily Weather History Graph

Daily Weather History Graph

Search for Another Location

Airport or City:

Trip Planner

Search our weather history database for the weather conditions in past years. The results will help you decide how hot, cold, wet, or windy it might be!

Date:

Astronomy

Feb. 13, 2012 Rise Set
Actual Time 7:09 AM EST 6:19 PM EST
Civil Twilight 6:45 AM EST 6:43 PM EST
Nautical Twilight 6:18 AM EST 7:11 PM EST
Astronomical Twilight 5:50 AM EST 7:38 PM EST
Moon No Moon Rise 10:47 AM EST (2/13)
Length of Visible Light 11h 57m
Length of Day
11h 09m
Waning Gibbous, 62% of the Moon is Illuminated
Feb 13
Waning Gibbous
Feb 14
Last Quarter
Feb 21
New
Feb 29
First Quarter
Mar 8
Full

Hourly Weather History & Observations

Time (EST) Temp. Windchill Dew Point Humidity Pressure Visibility Wind Dir Wind Speed Gust Speed Precip Events Conditions
12:53 AM 42.1 °F 39.2 °F 27.0 °F 55% 30.31 in 10.0 mi NE 4.6 mph - N/A   Scattered Clouds
1:53 AM 39.9 °F 35.8 °F 25.0 °F 55% 30.29 in 10.0 mi NNE 5.8 mph - N/A   Partly Cloudy
2:53 AM 39.0 °F 36.8 °F 26.1 °F 60% 30.28 in 10.0 mi ENE 3.5 mph - N/A   Partly Cloudy
3:53 AM 39.0 °F 35.7 °F 28.0 °F 65% 30.27 in 10.0 mi ENE 4.6 mph - N/A   Partly Cloudy
4:53 AM 37.9 °F 35.5 °F 28.0 °F 68% 30.27 in 10.0 mi NE 3.5 mph - N/A   Clear
5:53 AM 37.9 °F 35.5 °F 27.0 °F 65% 30.28 in 10.0 mi NE 3.5 mph - N/A   Partly Cloudy
6:53 AM 37.0 °F 32.4 °F 27.0 °F 67% 30.29 in 10.0 mi NNE 5.8 mph - N/A   Mostly Cloudy
7:53 AM 41.0 °F 37.1 °F 25.0 °F 53% 30.29 in 10.0 mi NE 5.8 mph - N/A   Mostly Cloudy
8:53 AM 45.0 °F 41.8 °F 21.9 °F 40% 30.30 in 10.0 mi NE 5.8 mph - N/A   Mostly Cloudy
9:53 AM 48.9 °F - 21.9 °F 35% 30.30 in 10.0 mi NE 6.9 mph - N/A   Mostly Cloudy
10:53 AM 54.0 °F - 26.1 °F 34% 30.28 in 10.0 mi NE 8.1 mph - N/A   Scattered Clouds
11:53 AM 59.0 °F - 26.1 °F 28% 30.26 in 10.0 mi NNE 5.8 mph - N/A   Mostly Cloudy
12:53 PM 60.1 °F - 27.0 °F 28% 30.25 in 10.0 mi WSW 5.8 mph - N/A   Scattered Clouds
1:53 PM 62.1 °F - 33.1 °F 34% 30.19 in 10.0 mi Variable 6.9 mph - N/A   Scattered Clouds
2:53 PM 62.1 °F - 35.1 °F 37% 30.19 in 10.0 mi WSW 10.4 mph - N/A   Scattered Clouds
3:53 PM 63.0 °F - 36.0 °F 37% 30.16 in 10.0 mi WSW 5.8 mph - N/A   Scattered Clouds
4:53 PM 62.1 °F - 37.9 °F 41% 30.14 in 10.0 mi West 3.5 mph - N/A   Mostly Cloudy
5:53 PM 62.1 °F - 41.0 °F 46% 30.14 in 10.0 mi West 4.6 mph - N/A   Scattered Clouds
6:53 PM 59.0 °F - 39.9 °F 49% 30.14 in 10.0 mi West 4.6 mph - N/A   Scattered Clouds
7:53 PM 57.0 °F - 37.9 °F 49% 30.16 in 10.0 mi North 4.6 mph - N/A   Partly Cloudy
8:53 PM 55.0 °F - 37.0 °F 51% 30.17 in 10.0 mi North 4.6 mph - N/A   Partly Cloudy
9:53 PM 54.0 °F - 37.0 °F 53% 30.17 in 10.0 mi NNE 4.6 mph - N/A   Scattered Clouds
10:53 PM 53.1 °F - 36.0 °F 52% 30.16 in 10.0 mi Calm Calm - N/A   Partly Cloudy
11:53 PM 53.1 °F - 37.0 °F 55% 30.15 in 10.0 mi Calm Calm - N/A   Partly Cloudy